This is the latest recevied weather packets stored in our database for station/object WX7EM. If no packets are shown the sender has not sent any weather packets the latest 10 day(s).
| Time | Temp. | Humidity | Pressure | Rain* | Wind** | Luminosity | Snow |
|---|---|---|---|---|---|---|---|
| 1777503441 | 18.33° C | 51% | 1020 hPa | 0 mm | - | 155 W/m² | - |
| 1777503136 | 18.33° C | 51% | 1020.3 hPa | 0 mm | - | 141 W/m² | - |
| 1777502834 | 18.33° C | 51% | 1020.4 hPa | 0 mm | - | 114 W/m² | - |
| 1777502531 | 18.33° C | 51% | 1020.5 hPa | 0 mm | - | 86 W/m² | - |
| 1777502228 | 18.89° C | 51% | 1020.5 hPa | 0 mm | - | 67 W/m² | - |
| 1777501925 | 18.33° C | 52% | 1020.5 hPa | 0 mm | - | 194 W/m² | - |
| 1777501622 | 18.33° C | 51% | 1020.6 hPa | 0 mm | - | 112 W/m² | - |
| 1777501319 | 18.33° C | 52% | 1020.7 hPa | 0 mm | - | 112 W/m² | - |
| 1777501017 | 17.78° C | 52% | 1020.6 hPa | 0 mm | - | 239 W/m² | - |
| 1777500715 | 17.78° C | 52% | 1020.8 hPa | 0 mm | - | 201 W/m² | - |
| 1777500411 | 18.33° C | 51% | 1020.8 hPa | 0 mm | - | 154 W/m² | - |
| 1777500107 | 17.78° C | 52% | 1020.8 hPa | 0 mm | - | 74 W/m² | - |
| 1777499804 | 17.78° C | 51% | 1020.8 hPa | 0 mm | - | 70 W/m² | - |
| 1777499500 | 17.78° C | 52% | 1020.6 hPa | 0 mm | - | 134 W/m² | - |
| 1777499199 | 17.78° C | 51% | 1020.9 hPa | 0 mm | - | 76 W/m² | - |
| 1777498895 | 17.78° C | 52% | 1021.1 hPa | 0 mm | - | 88 W/m² | - |
| 1777498592 | 17.78° C | 51% | 1021.1 hPa | 0 mm | - | 270 W/m² | - |
| 1777498287 | 17.22° C | 53% | 1020.8 hPa | 0 mm | - | 162 W/m² | - |
| 1777497987 | 17.78° C | 51% | 1021 hPa | 0 mm | - | 151 W/m² | - |
| 1777497682 | 17.22° C | 52% | 1021.1 hPa | 0 mm | - | 742 W/m² | - |
| 1777497379 | 17.22° C | 51% | 1021.3 hPa | 0 mm | - | 474 W/m² | - |
| 1777497075 | 17.78° C | 52% | 1021.2 hPa | 0 mm | - | 792 W/m² | - |
| 1777496771 | 17.22° C | 53% | 1021.2 hPa | 0 mm | - | 801 W/m² | - |
| 1777496468 | 17.78° C | 52% | 1021 hPa | 0 mm | - | 809 W/m² | - |
| 1777496165 | 17.22° C | 54% | 1021.1 hPa | 0 mm | - | 815 W/m² | - |
* Rain latest hour (hover to see other rain measurements)
** Current wind speed in m/s (hover to see current wind gust speed)